TimeCST,TemperatureF,Dew PointF,Humidity,Sea Level PressureIn,VisibilityMPH,Wind Direction,Wind SpeedMPH,Gust SpeedMPH,PrecipitationIn,Events,Conditions,WindDirDegrees,DateUTC
12:18 AM,35.6,33.8,93,30.10,10.0,NW,9.2,-,N/A,,Scattered Clouds,320,2013-02-13 06:18:00
12:43 AM,33.8,33.8,100,30.11,10.0,NW,8.1,-,N/A,,Mostly Cloudy,310,2013-02-13 06:43:00
12:52 AM,34.0,33.1,96,30.12,10.0,NW,6.9,-,N/A,,Overcast,310,2013-02-13 06:52:00
1:52 AM,33.8,32.0,93,30.10,9.0,NW,8.1,-,N/A,,Overcast,310,2013-02-13 07:52:00
2:52 AM,34.0,32.0,92,30.11,10.0,NNW,6.9,-,N/A,,Overcast,330,2013-02-13 08:52:00
3:52 AM,34.0,32.0,92,30.11,10.0,NW,4.6,-,N/A,,Overcast,310,2013-02-13 09:52:00
4:11 AM,33.8,30.2,87,30.10,10.0,West,3.5,-,N/A,,Scattered Clouds,270,2013-02-13 10:11:00
4:52 AM,30.9,30.0,96,30.11,9.0,WSW,3.5,-,N/A,,Partly Cloudy,240,2013-02-13 10:52:00
5:52 AM,30.0,30.0,100,30.11,6.0,SW,4.6,-,N/A,,Clear,220,2013-02-13 11:52:00
6:52 AM,28.0,27.0,96,30.12,5.0,SW,4.6,-,N/A,,Clear,220,2013-02-13 12:52:00
7:52 AM,30.0,28.9,96,30.12,6.0,SW,6.9,-,N/A,,Clear,230,2013-02-13 13:52:00
8:52 AM,34.0,32.0,92,30.13,9.0,WSW,6.9,-,N/A,,Clear,240,2013-02-13 14:52:00
9:52 AM,39.0,34.0,82,30.14,10.0,WSW,9.2,-,N/A,,Clear,250,2013-02-13 15:52:00
10:52 AM,43.0,35.1,74,30.14,10.0,West,13.8,-,N/A,,Clear,260,2013-02-13 16:52:00
11:52 AM,48.0,35.1,61,30.12,10.0,West,12.7,-,N/A,,Clear,270,2013-02-13 17:52:00
12:52 PM,52.0,32.0,47,30.08,10.0,Variable,6.9,-,N/A,,Clear,0,2013-02-13 18:52:00
1:52 PM,55.0,30.0,38,30.04,10.0,WSW,12.7,-,N/A,,Clear,250,2013-02-13 19:52:00
2:52 PM,57.0,30.0,36,30.02,10.0,WNW,10.4,-,N/A,,Clear,290,2013-02-13 20:52:00
3:52 PM,57.9,28.9,33,30.01,10.0,WSW,12.7,18.4,N/A,,Clear,250,2013-02-13 21:52:00
4:52 PM,57.9,28.9,33,30.00,10.0,WSW,9.2,-,N/A,,Clear,250,2013-02-13 22:52:00
5:52 PM,55.0,28.0,35,29.99,10.0,SW,5.8,-,N/A,,Clear,230,2013-02-13 23:52:00
6:52 PM,51.1,28.0,41,30.00,10.0,SSW,5.8,-,N/A,,Clear,210,2013-02-14 00:52:00
7:52 PM,51.1,28.0,41,30.01,10.0,Calm,Calm,-,N/A,,Clear,0,2013-02-14 01:52:00
8:52 PM,45.0,30.9,58,30.01,10.0,ESE,4.6,-,N/A,,Clear,120,2013-02-14 02:52:00
9:52 PM,42.1,30.9,65,30.01,10.0,SSE,4.6,-,N/A,,Clear,160,2013-02-14 03:52:00
10:52 PM,39.9,30.9,70,30.01,10.0,SSW,6.9,-,N/A,,Clear,200,2013-02-14 04:52:00
11:52 PM,41.0,30.0,65,30.01,10.0,South,4.6,-,N/A,,Clear,190,2013-02-14 05:52:00